This is the latest recevied weather packets stored in our database for station/object W3AJR. If no packets are shown the sender has not sent any weather packets the latest 10 day(s).
| Time | Temp. | Humidity | Pressure | Rain* | Wind** | Luminosity | Snow |
|---|---|---|---|---|---|---|---|
| 1777836313 | 17.22° C | 30% | 1015.4 hPa | 0 mm | - | 613 W/m² | - |
| 1777836008 | 16.67° C | 32% | 1015.4 hPa | 0 mm | - | 656 W/m² | - |
| 1777835706 | 17.22° C | 32% | 1015.3 hPa | 0 mm | - | 349 W/m² | - |
| 1777835402 | 17.22° C | 32% | 1015.5 hPa | 0 mm | - | 698 W/m² | - |
| 1777835099 | 16.67° C | 33% | 1015.4 hPa | 0 mm | - | 667 W/m² | - |
| 1777834796 | 16.67° C | 31% | 1015.6 hPa | 0 mm | - | 672 W/m² | - |
| 1777834493 | 16.11° C | 30% | 1015.9 hPa | 0 mm | - | 681 W/m² | - |
| 1777834192 | 16.11° C | 31% | 1015.9 hPa | 0 mm | - | 690 W/m² | - |
| 1777833889 | 16.67° C | 30% | 1015.9 hPa | 0 mm | - | 686 W/m² | - |
| 1777833585 | 16.67° C | 32% | 1015.6 hPa | 0 mm | - | 665 W/m² | - |
| 1777833282 | 16.67° C | 35% | 1015.9 hPa | 0 mm | - | 722 W/m² | - |
| 1777832979 | 16.67° C | 33% | 1016 hPa | 0 mm | - | 697 W/m² | - |
| 1777832678 | 16.67° C | 36% | 1015.9 hPa | 0 mm | - | 652 W/m² | - |
| 1777832375 | 16.11° C | 34% | 1016 hPa | 0 mm | - | 624 W/m² | - |
| 1777832072 | 16.11° C | 34% | 1016 hPa | 0 mm | - | 550 W/m² | - |
| 1777831767 | 15.56° C | 34% | 1016.2 hPa | 0 mm | - | 655 W/m² | - |
| 1777831466 | 16.11° C | 35% | 1016.1 hPa | 0 mm | - | 729 W/m² | - |
| 1777831162 | 16.67° C | 34% | 1016 hPa | 0 mm | - | 753 W/m² | - |
| 1777830861 | 16.11° C | 35% | 1016 hPa | 0 mm | - | 762 W/m² | - |
| 1777830556 | 16.11° C | 33% | 1016.3 hPa | 0 mm | - | 745 W/m² | - |
| 1777830255 | 16.11° C | 38% | 1016.2 hPa | 0 mm | - | 665 W/m² | - |
| 1777829949 | 15° C | 36% | 1016.4 hPa | 0 mm | - | 744 W/m² | - |
| 1777829645 | 15° C | 33% | 1016.1 hPa | 0 mm | - | 747 W/m² | - |
| 1777829342 | 15.56° C | 34% | 1016.3 hPa | 0 mm | - | 221 W/m² | - |
| 1777829040 | 15° C | 36% | 1016.4 hPa | 0 mm | - | 771 W/m² | - |
* Rain latest hour (hover to see other rain measurements)
** Current wind speed in m/s (hover to see current wind gust speed)